Regional Weather Roundup
Issued by NWS Midland/Odessa, TX

Skip options and go directly to product.
Home | Oldest Version | Previous Version | Current Version | All | Text Only | Save Text | Print | Product List | Glossary Off

Skip product version selection by date and time.   

002
ASUS44 KMAF 031910
RWRMAF
MIDLAND AREA WEATHER ROUNDUP
NATIONAL WEATHER SERVICE MIDLAND TX
200 PM CDT MON AUG 03 2015

...IN SOUTHWEST TEXAS AND SOUTHEAST NEW MEXICO...

CITY           SKY/WX    TMP DP  RH WIND       PRES   REMARKS
ALPINE         MOSUNNY   79  58  49 SE12G18   30.15S THUNDER
ANDREWS        FAIR      93  58  31 S12G18    29.99F
ARTESIA        MOSUNNY   90  59  35 CALM      30.01F
BIG SPRING     MOSUNNY   90  63  39 SE8       30.00S
CARLSBAD       MOSUNNY   91  60  35 VRB3      29.99F
DRYDEN           N/A    100  62  28 SE8G20    29.93F HX 101
FORT STOCKTON  SUNNY     97  53  22 S7        29.97F
GUAD PASS      PTSUNNY   83  58  42 SW17      30.17F
HOBBS          PTSUNNY   91  61  35 SE10      30.03F
MARFA          MOSUNNY   90  55  31 W9        30.12S
MIDLAND AIRPK  MOSUNNY   96  56  25 SE12      29.98F
MIDLAND INTL   MOSUNNY   96  58  27 S15       29.97F
ODESSA         MOSUNNY   94  57  28 S13G22    29.99F
PECOS          SUNNY     96  58  27 NW5       29.93F
PRESIDIO       FAIR      96  56  25 S5        29.95F
SEMINOLE       SUNNY     94  56  27 S9G17     30.00F
SNYDER         PTSUNNY   89  63  41 S10       29.99F
WINK           MOSUNNY   96  58  27 S12       29.94F
$$
...OTHER STATIONS IN TEXAS...

CITY           SKY/WX    TMP DP  RH WIND       PRES   REMARKS
ABILENE        MOSUNNY   95  62  33 VRB3      29.96F
AMARILLO       MOSUNNY   82  69  64 S13       30.05S
AUSTIN         MOSUNNY   96  60  30 E9G16     29.91F
BROWNSVILLE    MOSUNNY   93  73  52 SE18G25   29.88F HX 102
CORPUS CHRISTI TSTM      78  74  87 NE24      29.91S VSB 3/4
DALLAS FTW     MOSUNNY   97  55  24 VRB6      29.91F
DEL RIO        SUNNY     97  61  30 S8G18     29.88F
EL PASO        MOSUNNY   89  59  36 VRB3      30.05F
HOUSTON INT    MOSUNNY   97  67  37 CALM      29.91F HX 101
LUBBOCK        PTSUNNY   89  64  43 S12       30.01F
SAN ANGELO     MOSUNNY   96  59  29 S9        29.95F
SAN ANTONIO    MOSUNNY   96  61  31 CALM      29.92F
WACO           SUNNY     98  61  29 S8        29.91F
WICHITA FALLS  NOT AVBL
$$
...OTHER LOCATIONS IN NEW MEXICO...

CITY           SKY/WX    TMP DP  RH WIND       PRES   REMARKS
ALAMAGORDO     MOSUNNY   88  55  33 SW7       30.08S
ALBUQUERQUE    MOSUNNY   82  54  37 N12       30.18F
CANNON AFB     SUNNY     83  63  49 SW6       30.06F
CLOVIS         MOSUNNY   84  63  48 E3        30.07F
HOLLOMAN AFB   PTSUNNY   89  55  31 SW10G17   30.05F
ROSWELL        MOSUNNY   92  60  34 E6        30.01F
RUIDOSO          N/A    N/A N/A N/A MISG        N/A
SANTA FE       MOSUNNY   78  53  41 VRB6      30.21F
TRUTH OR CONSE MOSUNNY   87  56  34 MISG      30.11F
TUCUMCARI      SUNNY     84  65  52 VRB3      30.03F
$$

USA.gov is the U.S. government's official web portal to all federal, state and local government web resources and services.